Location: Gad�tanya
(48.0500°N, 20.8500°E)
Time: 08:05:47
(UTC+00:00)

Cosmos 1328 - Pass Details

Date: 05 July 2020
Orbit: 538 x 546 km, 82.5° (Epoch: 05 August)

Event Time Altitude Azimuth Distance (km) Brightness Sun altitude
Exits shadow 20:01:44 - 195° (SSW) 2,442 6.8 -10.7°
Reaches altitude 10° 20:03:17 10° 198° (SSW) 1,804 6.1 -10.9°
Maximum altitude 20:07:13 66° 281° (W) 596 4.2 -11.3°
Drops below altitude 10° 20:11:12 10° 4° (N) 1,816 7.3 -11.7°
Sets 20:13:23 0° 8° (N) 2,712 8.2 -11.9°
